Погода в Черниговке

Россия / Липецкая область     52°29′36″N   39°05′31″E
темп.,
°C
ветер,
м/с
пор.,
м/с
влажн.,
%
обл.,
%
осадки,
мм/ч
давл.,
гПа
погр.,
м
29 января, сб
сб2900:00−5ююв51196100 0.6 1007328
03:00−4ююв3897100 1.1 1006236
06:00−7ю229992 0.1 100612
09:00−3ююз229699 0.1 100671
12:00−1юз249399 0.0 1006346
15:000юз239398 0.1 1007370
18:00−5юз229996 0.1 100815
21:00−3зюз2494100 0.1 100896
30 января, вс
вс3000:00−3юз3795100 0.0 1007220
03:00−4юз379766 0.3 1006173
06:00−7зюз399779 0.1 1005157
09:00−10ююз4109661 0.1 1005197
12:00−6ююз61493100 0.0 1003515
15:00−5ю71391100 0.0 1001649
18:00−5ю81595100 0.3 1000742
21:00−4ю71595100 1.1 998684
31 января, пн
пн3100:00−3ю61396100 0.3 997547
03:00−2ю51193100 0.4 997435
06:00−3ю61294100 0.1 997411
09:00−2ююв71391100 0.1 996569
12:00−1ю81495100 0.1 995894
15:000ю81597100 1.2 994997
18:00−1ююз81396100 1.0 994922
21:00−2ююз81492100 1.4 995656
1 февраля, вт
вт100:00−3юз7139399 0.1 997624
03:00−3юз61190100 0.2 998774
06:00−4юз6139399 0.1 1000634
09:00−5юз6129199 0.2 1002517
12:00−4юз71292100 0.1 1004865
15:00−4зюз71288100 0.3 1005935
18:00−4юз61190100 0.1 1007804
21:00−5юз51191100 0.1 1008557
2 февраля, ср
ср200:00−8ю3697100 0.0 100982
03:00−7ю3896100 0.0 1009172
06:00−7ююв2597100 0.1 1008105
09:00−5вюв2397100 0.7 1006117
12:00−3всв2397100 1.9 1004180
15:00−2с3398100 3.9 1003218
18:00−4с359780 1.1 1004175
21:00−12сз2210087 1.1 100710